PST,Max TemperatureF,Mean TemperatureF,Min TemperatureF,Max Dew PointF,MeanDew PointF,Min DewpointF,Max Humidity, Mean Humidity, Min Humidity, Max Sea Level PressureIn, Mean Sea Level PressureIn, Min Sea Level PressureIn, Max VisibilityMiles, Mean VisibilityMiles, Min VisibilityMiles, Max Wind SpeedMPH, Mean Wind SpeedMPH, Max Gust SpeedMPH,PrecipitationIn, CloudCover, Events, WindDirDegrees
2012-11-1,66,62,60,55,53,52,84,74,63,30.04,30.01,29.99,10,6,4,5,1,,0.00,7,,86
2012-11-2,72,65,57,56,53,51,84,69,53,30.01,29.97,29.92,10,8,5,13,4,,0.00,1,,202
2012-11-3,79,67,54,58,54,51,86,64,42,30.05,30.01,29.97,9,6,4,13,3,15,0.00,0,,311
2012-11-4,93,74,55,55,45,25,87,48,9,30.08,30.03,29.99,10,8,4,15,3,,0.00,0,,312
2012-11-5,93,76,59,49,37,30,56,34,11,30.06,30.02,29.96,10,10,10,14,3,,0.00,0,,297
2012-11-6,77,67,57,63,56,43,100,71,42,30.09,30.04,29.99,10,7,0,9,2,12,0.00,2,Fog,161
2012-11-7,73,67,61,60,56,54,87,72,57,30.07,30.01,29.96,10,6,3,13,4,15,0.00,4,,310
2012-11-8,68,65,61,57,55,49,84,75,65,30.04,29.94,29.89,10,10,4,14,5,26,0.12,8,Rain,246
2012-11-9,65,60,54,48,43,38,67,52,37,29.94,29.91,29.87,10,10,10,22,11,30,0.00,2,,276
2012-11-10,64,56,47,44,34,25,76,53,30,30.16,30.06,29.95,10,10,10,22,8,28,0.00,0,,297
2012-11-11,68,55,42,40,30,20,58,38,18,30.30,30.24,30.16,10,10,10,21,4,25,0.00,0,,339
2012-11-12,76,61,46,46,28,10,72,40,8,30.25,30.18,30.10,10,10,10,17,6,20,0.00,0,,319
2012-11-13,85,66,46,39,27,11,51,29,6,30.12,30.05,29.99,10,10,10,10,4,13,0.00,0,,323
2012-11-14,73,61,49,57,48,34,93,60,27,30.07,30.03,29.99,10,6,0,7,2,9,0.00,0,Fog,164
2012-11-15,66,60,54,57,55,50,100,79,58,30.11,30.06,30.01,10,4,0,9,2,13,0.01,6,Fog-Rain,119
2012-11-16,72,65,58,58,53,45,90,64,38,30.12,30.07,30.02,10,9,5,10,2,20,0.09,8,Rain,165
2012-11-17,69,64,59,61,59,56,90,79,68,30.11,30.07,30.04,10,9,2,12,4,16,0.07,7,Rain,153
2012-11-18,70,63,56,59,56,51,97,76,55,30.19,30.13,30.07,10,9,4,14,4,17,0.00,5,,296
2012-11-19,71,62,53,55,52,50,93,71,49,30.25,30.19,30.16,10,10,7,14,3,17,0.00,2,,311
2012-11-20,73,62,50,54,51,48,89,67,44,30.16,30.10,30.04,10,9,6,15,3,18,0.00,0,,307
2012-11-21,67,61,54,56,54,50,93,78,63,30.12,30.06,30.02,10,5,0,8,3,10,0.00,5,Fog,109
2012-11-22,69,62,55,56,54,51,93,75,57,30.13,30.09,30.04,10,5,2,9,2,12,0.00,4,,302
2012-11-23,76,64,52,56,53,50,100,72,44,30.17,30.12,30.06,9,2,0,10,3,13,0.00,4,Fog,316
2012-11-24,85,68,50,55,50,39,100,60,20,30.09,30.00,29.92,10,6,0,15,3,17,0.00,0,Fog-Rain,298
2012-11-25,63,60,57,58,55,54,100,86,72,29.98,29.94,29.89,10,5,0,8,4,10,0.00,7,Fog,135
2012-11-26,67,61,54,54,52,50,86,72,58,30.11,30.05,29.99,10,9,7,9,4,13,0.00,4,,108
2012-11-27,69,60,51,54,51,48,89,76,63,30.17,30.12,30.05,10,7,4,15,3,18,0.00,3,,336
2012-11-28,67,62,57,56,53,51,86,75,63,30.20,30.16,30.11,10,8,3,10,3,14,T,8,Rain,129
2012-11-29,63,61,58,61,58,55,93,86,78,30.23,30.18,30.14,9,3,1,9,4,12,0.29,8,Rain,108
2012-11-30,66,64,62,63,61,59,93,90,87,30.15,30.12,30.05,10,4,0,12,4,24,0.46,8,Fog-Rain,146